Погода в Кумлудже

Турция     36°22′00″N   30°17′08″E
темп.,
°C
ветер,
м/с
пор.,
м/с
влажн.,
%
обл.,
%
осадки,
мм/ч
давл.,
гПа
погр.,
м
8 августа, пн
пн800:00+27з00750 0.0 1004300
03:00+26юз11780 0.0 1004322
06:00+26зюз11780 0.0 1004309
09:00+27ю21750 0.0 1005372
12:00+27ю54750 0.0 1006381
15:00+28ююз54690 0.0 1006470
18:00+28юз55700 0.0 1005444
21:00+27з22730 0.0 1006440
9 августа, вт
вт900:00+27в11740 0.0 1006364
03:00+27ссв11744 0.0 1006565
06:00+26ссв21790 0.0 1006253
09:00+27в11720 0.0 1006221
12:00+27ююв44786 0.0 1007375
15:00+28ююз44753 0.0 1006456
18:00+28юз66770 0.0 1005403
21:00+27зюз22730 0.2 1005437
10 августа, ср
ср1000:00+26с11790 0.2 1005220
03:00+26всв22810 0.2 1004307
06:00+26с11820 0.0 1004217
09:00+27в00780 0.0 1004258
12:00+27ю43792 0.0 1004338
15:00+28ююз54783 0.0 1004450
18:00+28юз55760 0.1 1003346
21:00+28ю01710 0.4 1004378
11 августа, чт
чт1100:00+26ссв21780 0.1 1004174
03:00+26св11770 0.1 1003166
06:00+27с11730 0.0 1003200
09:00+28ю11690 0.0 1004287
12:00+28ю53750 0.0 1005401
15:00+28ююз65770 0.1 1005402
18:00+28юз55700 0.1 1004345
21:00+27зюз22700 0.3 1006291
12 августа, пт
пт1200:00+28зюз11690 0.0 1006213
03:00+27ю11710 0.0 1005229
06:00+27ююв01710 0.0 1005211
09:00+28ююв21700 0.0 1006252
12:00+28ю54730 0.0 1007305
15:00+28ююз44720 0.0 1006350
18:00+29юз55670 0.0 1006318
21:00+28юз22710 0.1 1007272